Showing default

KUIPER-00301, 68598

Orbit data source: Space-Track

KUIPER-00301, 68598 is a payload satellite owned by Kuiper Systems (US) in LEO that was launched on Sat, 04 Apr 2026 UTC via an ATLAS V 551 launch vehicle from the Air Force Eastern Test Range (AFETR). Payload-class satellites include a variety of spacecraft equipped with specific instruments for various scientific and technological missions. These include communications satellites like Starlink; space stations such as the ISS; scientific satellites like the Hubble; Earth observation satellites from companies like Planet Labs, Umbra, and HawkEye 360; GPS; miniature CubeSats for education and research; and military/defense satellites.

Loading next visibility...
Identifier
68598, 2026-072AB
Orbit
LEO
Country
Flag of USUS
Related business
Manufacturer
Kuiper Systems
Mission
Operational spacecraft
Bus & Motor
KUIPER, Unknown motor
Mass
~490 kg wet, ~490 kg dry
Launch date (UTC)
2026-04-04 (2 months ago)
Launch vehicle
ATLAS V 551
Launch site
Air Force Eastern Test Range (AFETR)
Object type
Payload
Rocket body
Debris
Shape & HBR
Unknown shape, 3.4 m
Radar Cross Section
Large (>1 m²)

Expand to show TLE details & history
Last TLE update: 22 hours ago

TLE from 22 hours ago
0 KUIPER-00301
1 68598U 26072AB  26149.70020401  .00035006  00000-0  93213-3 0  9994
2 68598  51.8659 266.4814 0009737 321.1279  38.9007 15.37819996  8535
Epoch: 2026-05-29T16:48Z
TLE epoch observation values (Epoch: 2026-05-29T16:48:17.626Z)
Latitude
Longitude
127.18114°
Altitude
448.146 km
Speed
7.648 km/s
True Right ascension
17h 45m 55s
True Declination
0° 00' 00"
Sunlit
Object was in full shadow at epoch
Visualization orbit readout
Latitude
Unknown
Longitude
Unknown
Altitude
Unknown
Speed
Unknown
Apparent Right ascension
Unknown
Apparent Declination
Unknown
Sunlit
N/A
Visualization observer readout
Local Sidereal Time
00:45:13
Azimuth
Unknown
Elevation
Unknown
Doppler factor
Unknown
Orbital elements
Apogee altitude
459.677 km
Perigee altitude
446.374 km
Semi-major axis
6,831.162 km
Eccentricity
0.00097
Inclination
51.8659°
RAAN
266.4814°
Arg. of periapsis
321.1279°
True anomaly
38.97083°
Mean anomaly
38.9007°
Eccentric anomaly
38.93576°
Mean motion
3.84416 °/min
Orbital period
93.65 mins
BSTAR
0.00093213
Loading maneuver chart data...
Computing Atmospheric mass density...
Loading historical data...
Loading historical data...
Loading historical data...
Loading historical data...
Loading historical data...
Loading historical data...
Loading historical data...

Documentation

Showing up to 5 results
|